Regional Weather Roundup
Issued by NWS

Home | Current Version | Previous Version | Graphics & Text | Print | Product List | Glossary On
Versions: 1 2 3 4 5 6 7 8 9 10 11 12 13 14 15 16 17 18 19 20 21 22 23 24 25 26 27 28 29 30 31 32 33 34 35 36 37 38 39 40 41 42 43 44 45 46 47 48 49 50
000
ASUS43 KFSD 041610
RWRSD

WEATHER ROUNDUP FOR SOUTH DAKOTA
NATIONAL WEATHER SERVICE SIOUX FALLS SD
1100 AM CDT FRI SEP 04 2015

NOTE: "FAIR" INDICATES FEW OR NO CLOUDS BELOW 12,000 FEET WITH NO
SIGNIFICANT WEATHER AND/OR OBSTRUCTIONS TO VISIBILITY.


SDZ001>005-009-010-012>017-041700-
NORTHWEST AND NORTH CENTRAL SOUTH DAKOTA

CITY           SKY/WX    TMP DP  RH WIND       PRES   REMARKS
BUFFALO          N/A     70  61  73 NE5       29.79R
FAITH            N/A     83  56  39 S9        29.80
MOBRIDGE       CLOUDY    74  68  81 S7        29.76R
$$

SDZ012>016-024>037-041>051-057-063-072>074-041700-
SOUTHWEST AND SOUTH CENTRAL SOUTH DAKOTA

CITY           SKY/WX    TMP DP  RH WIND       PRES   REMARKS
RAPID CTY ARPT SUNNY     78  55  44 CALM      29.83R
PIERRE         SUNNY     78  67  68 SE10      29.76S
CUSTER         SUNNY     77  44  30 W6        29.98R
PHILIP         SUNNY     83  62  49 E6        29.78S
PINE RIDGE     SUNNY     82  57  42 SW7       29.85S
WINNER         FAIR      82  63  52 S12       29.79S
$$

SDZ004>011-016>023-039-040-041700-
NORTHEAST SOUTH DAKOTA

CITY           SKY/WX    TMP DP  RH WIND       PRES   REMARKS
ABERDEEN       CLOUDY    73  67  81 S10       29.82R
WATERTOWN      LGT RAIN  71  63  75 SW13      29.86F
BROOKINGS      PTSUNNY   79  70  73 S8        29.90S
SISSETON         N/A     77  69  76 S8        29.82R
$$

SDZ017-020-022-023-036>040-048>070-041700-
SOUTHEAST SOUTH DAKOTA

CITY           SKY/WX    TMP DP  RH WIND       PRES   REMARKS
SIOUX FALLS    PTSUNNY   79  69  71 S6        29.86F
HURON          CLOUDY    74  69  85 SE7       29.81R
CHAMBERLAIN    MOSUNNY   78  68  71 SE12G23   29.78S
MITCHELL       CLOUDY    80  67  64 S12       29.81S
YANKTON        CLOUDY    73  64  73 S7        29.83S
$$

ABBREVIATIONS USED IN REMARKS
   TC - TEMPERATURE IN CELSIUS
  WCI - WIND CHILL INDEX
   HX - HEAT INDEX
  VSB - VISIBILITY



USA.gov is the U.S. government's official web portal to all federal, state and local government web resources and services.